Waarnemingen

Advertentie
Mijn weer
Reus, Spanje (8175): temperatuur & dauwpunt: 08.10.2019 20:00:00 - 14.10.2019 20:00:00 (CEST)Reus, Spanje (8175): windsnelheid: 08.10.2019 20:00:00 - 14.10.2019 20:00:00 (CEST)Reus, Spanje (8175): windrichting: 08.10.2019 20:00:00 - 14.10.2019 20:00:00 (CEST)Reus, Spanje (8175): luchtdruk: 08.10.2019 20:00:00 - 14.10.2019 20:00:00 (CEST)Reus, Spanje (8175): zicht: 08.10.2019 20:00:00 - 14.10.2019 20:00:00 (CEST)
Datum & Tijd tt [°C] td [°C] ff [km/u] ff [kn] dd ppp [hPa] vv [km]
14.10.2019 20:00:00 19,9 18,4 11 6 O 1010,9 13
14.10.2019 19:00:00 20,6 18,9 11 6 O 1011,1 13
14.10.2019 18:00:00 20,8 18,9 15 8 O 1010,8 11
14.10.2019 17:00:00 21,5 18,9 9 5 NO 1011,5 14
14.10.2019 16:00:00 21,9 17,9 11 6 OZO 1013,0 15
14.10.2019 15:00:00 23,3 17,3 16 9 ZZO 1013,9 22
14.10.2019 14:00:00 24,9 17,4 11 6 OZO 1013,9 20
14.10.2019 13:00:00 25,1 17,8 18 10 OZO 1014,1 28
14.10.2019 12:00:00 25,1 18,0 16 9 O 1014,5 20
14.10.2019 11:00:00 23,0 17,9 16 9 ONO 1014,9 20
14.10.2019 10:00:00 21,3 17,6 13 7 ONO 1015,1 22
14.10.2019 09:00:00 19,8 16,8 13 7 NO 1014,6 16
14.10.2019 08:00:00 19,1 16,7 9 5 NO 1014,6 15
14.10.2019 07:00:00 19,3 16,9 11 6 NNO 1014,8 13
14.10.2019 06:00:00 19,1 16,8 13 7 NNO 1015,1 15
14.10.2019 05:00:00 19,1 16,7 9 5 NO 1015,4 20
14.10.2019 04:00:00 19,3 16,7 8 4 N 1015,9 21
14.10.2019 03:00:00 19,0 16,9 11 6 N 1016,5 17
14.10.2019 02:00:00 19,4 17,4 9 5 NNO 1017,0 16
14.10.2019 01:00:00 19,8 17,8 9 5 NNO 1017,1 13
14.10.2019 00:00:00 20,3 18,6 9 5 NO 1017,4 12
13.10.2019 23:00:00 20,2 18,7 9 5 NO 1017,6 12
13.10.2019 22:00:00 19,8 18,5 9 5 ONO 1017,6 11
13.10.2019 21:00:00 20,1 18,2 9 5 NO 1017,5 12
13.10.2019 20:00:00 21,1 18,5 11 6 O 1017,2 17
13.10.2019 19:00:00 21,9 19,1 13 7 O 1016,9 15
13.10.2019 18:00:00 22,8 18,6 18 10 O 1016,8 18
13.10.2019 17:00:00 23,5 19,2 22 12 OZO 1016,6 20
13.10.2019 16:00:00 25,2 19,1 28 15 OZO 1016,5 25
13.10.2019 15:00:00 25,3 18,4 26 14 OZO 1016,6 17
13.10.2019 14:00:00 25,4 17,9 22 12 ZO 1017,3 25
13.10.2019 13:00:00 25,7 17,5 21 11 ZO 1017,9 24
13.10.2019 12:00:00 26,1 17,7 16 9 OZO 1018,0 30
13.10.2019 11:00:00 24,3 17,6 11 6 O 1018,1 30
13.10.2019 10:00:00 22,1 18,0 9 5 NO 1017,9 30
13.10.2019 09:00:00 20,1 17,7 9 5 ONO 1017,6 21
13.10.2019 08:00:00 19,9 17,7 8 4 ONO 1017,4 21
13.10.2019 07:00:00 19,9 17,9 11 6 ONO 1017,2 21
13.10.2019 06:00:00 19,3 17,1 11 6 ONO 1017,2 17
13.10.2019 05:00:00 20,2 17,4 9 5 NO 1017,5 21
13.10.2019 04:00:00 19,8 17,4 9 5 NNO 1017,7 30
13.10.2019 03:00:00 19,9 17,3 11 6 O 1018,1 25
13.10.2019 02:00:00 20,2 17,6 11 6 NO 1018,4 26
13.10.2019 01:00:00 20,3 18,1 9 5 NNO 1018,7 20
13.10.2019 00:00:00 19,9 18,2 9 5 ONO 1018,7 25
12.10.2019 23:00:00 20,3 18,2 9 5 ONO 1018,6 19
12.10.2019 22:00:00 20,1 18,2 9 5 NO 1018,5 22
12.10.2019 21:00:00 20,1 17,9 8 4 NO 1018,4 18
12.10.2019 20:00:00 20,8 17,8 5 3 O 1018,4 27
12.10.2019 19:00:00 21,8 17,6 11 6 OZO 1018,1 30
12.10.2019 18:00:00 23,2 17,0 15 8 ZO 1018,1 30
12.10.2019 17:00:00 23,9 17,6 15 8 ZZO 1018,3 30
12.10.2019 16:00:00 24,9 17,1 15 8 ZO 1018,5 30
12.10.2019 15:00:00 25,2 17,7 13 7 ZZO 1018,9 27
12.10.2019 14:00:00 25,5 18,5 15 8 ZZO 1019,6 30
12.10.2019 13:00:00 24,7 16,4 15 8 ZZO 1020,0 30
12.10.2019 12:00:00 25,1 17,2 13 7 Z 1020,4 30
12.10.2019 11:00:00 23,6 17,8 15 8 ZZO 1020,5 30
12.10.2019 10:00:00 21,4 19,1 9 5 Z 1020,0 19
12.10.2019 09:00:00 20,9 19,6 8 4 Z 1019,4 15
12.10.2019 08:00:00 20,6 18,9 0 0 N 1019,0 17
12.10.2019 07:00:00 20,4 18,9 4 2 Z 1019,1 17
12.10.2019 06:00:00 19,8 18,3 0 0 N 1019,1 17
12.10.2019 05:00:00 20,0 18,3 4 2 Z 1019,3 18
12.10.2019 04:00:00 19,9 18,2 9 5 Z 1019,6 17
12.10.2019 03:00:00 20,5 18,8 9 5 Z 1019,9 19
12.10.2019 02:00:00 20,3 18,6 8 4 Z 1020,3 16
12.10.2019 01:00:00 20,3 18,4 8 4 Z 1020,5 19
12.10.2019 00:00:00 20,4 18,3 8 4 Z 1020,5 19
11.10.2019 23:00:00 21,0 18,4 9 5 ZZW 1020,5 23
11.10.2019 22:00:00 21,5 18,3 13 7 Z 1020,2 26
11.10.2019 21:00:00 21,4 18,2 11 6 Z 1019,9 30
11.10.2019 20:00:00 21,5 18,1 11 6 Z 1019,7 30
11.10.2019 19:00:00 21,8 17,8 13 7 ZZW 1019,6 30
11.10.2019 18:00:00 22,6 18,2 13 7 Z 1019,7 30
11.10.2019 17:00:00 23,3 17,3 15 8 ZZW 1019,9 30
11.10.2019 16:00:00 24,9 17,6 16 9 Z 1020,1 23
11.10.2019 15:00:00 24,1 17,5 15 8 ZZW 1020,5 30
11.10.2019 14:00:00 23,0 17,6 9 5 Z 1021,4 21
11.10.2019 13:00:00 23,0 17,3 9 5 Z 1022,0 18
11.10.2019 12:00:00 22,1 16,6 4 2 Z 1022,3 9
11.10.2019 11:00:00 21,0 16,2 0 0 N 1022,5 20
11.10.2019 10:00:00 20,1 15,9 5 3 NO 1022,1 16
11.10.2019 09:00:00 19,1 15,8 4 2 WNW 1021,8 12
11.10.2019 08:00:00 18,6 15,8 4 2 W 1021,5 11
11.10.2019 07:00:00 18,5 15,7 0 0 N 1021,2 11
11.10.2019 06:00:00 18,5 15,6 4 2 NNO 1021,1 10
11.10.2019 05:00:00 18,2 15,3 4 2 NNW 1021,1 9
11.10.2019 04:00:00 18,3 15,0 5 3 NNO 1021,5 9
11.10.2019 03:00:00 18,7 15,0 9 5 NNO 1021,8 9
11.10.2019 02:00:00 18,7 15,0 13 7 NNO 1022,0 10
11.10.2019 01:00:00 18,6 14,9 11 6 N 1022,3 10
11.10.2019 00:00:00 18,4 14,9 11 6 NNO 1022,6 16
10.10.2019 23:00:00 18,5 14,9 4 2 NNO 1022,6 17
10.10.2019 22:00:00 18,8 14,7 4 2 N 1022,4 20
10.10.2019 21:00:00 18,7 14,6 0 0 N 1022,2 25
10.10.2019 20:00:00 18,7 14,6 5 3 OZO 1021,9 21
10.10.2019 19:00:00 19,0 14,5 8 4 ZZO 1021,7 30
10.10.2019 18:00:00 - - 5 3 ZZO - 30
10.10.2019 17:00:00 - - 9 5 ZZO - 30
10.10.2019 16:00:00 20,4 16,3 8 4 ZO 1022,1 30
10.10.2019 15:00:00 20,2 15,9 9 5 OZO 1022,4 30
10.10.2019 14:00:00 20,3 16,3 11 6 OZO 1022,9 30
10.10.2019 13:00:00 20,0 14,5 9 5 O 1023,4 30
10.10.2019 12:00:00 19,1 14,1 4 2 NO 1023,3 30
10.10.2019 11:00:00 18,4 11,7 8 4 NNO 1023,5 25
10.10.2019 10:00:00 17,8 14,5 5 3 N 1023,2 30
10.10.2019 09:00:00 17,3 12,1 9 5 WNW 1022,3 30
10.10.2019 08:00:00 16,9 14,6 5 3 N 1021,9 30
10.10.2019 07:00:00 17,1 15,7 8 4 N 1021,6 30
10.10.2019 06:00:00 17,3 16,5 0 0 N 1021,4 30
10.10.2019 05:00:00 17,4 17,0 4 2 NNW 1021,3 30
10.10.2019 04:00:00 17,1 16,7 5 3 O 1021,5 27
10.10.2019 03:00:00 17,4 17,0 8 4 O 1021,8 15
10.10.2019 02:00:00 18,4 17,4 11 6 Z 1021,8 4,1
10.10.2019 01:00:00 18,9 17,3 5 3 NO 1021,5 14
10.10.2019 00:00:00 18,8 17,3 8 4 ONO 1021,1 30
09.10.2019 23:00:00 19,0 17,4 15 8 NNO 1020,8 7
09.10.2019 22:00:00 19,6 17,9 22 12 O 1019,7 18
09.10.2019 21:00:00 21,1 19,3 5 3 ZZO 1018,8 19
09.10.2019 20:00:00 21,4 19,4 8 4 Z 1018,1 20
09.10.2019 19:00:00 22,8 19,6 9 5 ZZW 1017,1 24
09.10.2019 18:00:00 24,0 19,5 15 8 Z 1016,6 24
09.10.2019 17:00:00 25,1 19,1 18 10 Z 1016,5 20
09.10.2019 16:00:00 26,1 19,2 18 10 Z 1016,3 24
09.10.2019 15:00:00 26,5 18,3 16 9 ZZW 1016,2 29
09.10.2019 14:00:00 25,7 18,6 13 7 ZW 1016,8 22
09.10.2019 13:00:00 22,7 19,2 15 8 WZW 1017,4 18
09.10.2019 12:00:00 23,5 19,2 15 8 ZW 1017,6 22
09.10.2019 11:00:00 23,1 19,2 13 7 ZZW 1017,7 17
09.10.2019 10:00:00 23,4 18,9 16 9 ZZW 1017,4 28
09.10.2019 09:00:00 21,9 19,0 9 5 Z 1017,1 23
09.10.2019 08:00:00 20,7 19,4 2 1 NNW 1016,7 25
09.10.2019 07:00:00 20,2 18,9 4 2 ZZO 1016,6 11
09.10.2019 06:00:00 20,2 18,9 8 4 NNO 1016,6 12
09.10.2019 05:00:00 19,7 18,4 5 3 NO 1016,5 11
09.10.2019 04:00:00 19,9 18,6 9 5 N 1017,0 12
09.10.2019 03:00:00 19,9 18,6 8 4 N 1017,2 11
09.10.2019 02:00:00 19,5 18,1 4 2 N 1017,5 9
09.10.2019 01:00:00 20,1 18,8 5 3 N 1017,6 12
09.10.2019 00:00:00 19,7 18,3 4 2 NNW 1017,7 11
08.10.2019 23:00:00 20,0 18,4 5 3 N 1017,5 16
08.10.2019 22:00:00 20,9 19,1 5 3 ZZW 1017,3 14
08.10.2019 21:00:00 21,2 19,2 8 4 WZW 1017,3 20
08.10.2019 20:00:00 - - - - - - -

tt = temperatuur
td = dauwpunt
ff = windsnelheid
dd = windrichting
ppp = luchtdruk
vv = zicht

Weerstations in de omgeving